Weather in Kazantsevo

Russia / Krasnoyarsk Krai     53°24′24″N   92°00′18″E
temp.,
°C
wind,
m/s
gust,
m/s
humid.,
%
clouds,
%
prec.,
mm/h
press.,
hPa
HPBL,
m
1 march, mon
mon101:00−14e239199 0.0 103262
04:00−16e238599 0.0 102932
07:00−15ese2285100 0.0 102752
10:00−12ese2481100 0.0 1023252
13:00−9ese3583100 0.0 1018396
16:00−6sse2490100 0.6 1015366
19:00−8sw1196100 0.7 101425
22:00−7sse2297100 0.4 101395
2 march, tue
tue201:00−6sse2396100 0.6 101279
04:00−6s2393100 0.0 101070
07:00−4sw41188100 0.0 1010317
10:00−1wsw61387100 0.0 10101047
13:000wsw71382100 0.1 10111412
16:000wsw7127771 0.2 10111032
19:00−2sw5148183 0.2 1013397
22:00−4wsw41286100 0.0 1013385
3 march, wed
wed301:00−5wnw1291100 0.0 101327
04:00−6wnw1292100 0.0 101324
07:00−7nnw1194100 0.1 101421
10:00−6nw1292100 0.3 1015218
13:00−4nw2288100 0.3 1016414
16:00−3nnw118398 0.0 1016418
19:00−7ne119499 0.1 101922
22:00−7wsw0197100 0.2 102221
4 march, thu
thu401:00−8wsw31192100 0.3 1024384
04:00−9wsw4138399 0.0 1025352
07:00−11wsw3108590 0.0 1028246
10:00−8wsw167818 0.0 1028366
13:00−5se12779 0.0 1027410
16:00−2se34821 0.0 1026394
19:00−5ese239049 0.0 102651
22:00−7ese238992 0.0 102624
5 march, fri
fri501:00−8ese228889 0.0 102521
04:00−9e2285100 0.0 102421
07:00−11se128698 0.0 102421
10:00−8ese228678 0.0 1022146
13:00−3ese488242 0.0 1017411
16:000se1496100 0.0 1014347
19:00−4ssw31690100 0.0 1018486
22:00−2sw51585100 0.0 1022842